SES-11 (ECHOSTAR 105) (42967 NORAD) Tracking and Keplerian Element Data

This shows tracking and keplerian element data for the satellite.

Feedback or suggestion? Click here.




ElementValue
Catalog42967
NameSES-11 (ECHOSTAR 105)
Epoch Orbit731
Epoch Day283.14441955
Epoch Year2019
RAAN128.9785
Inclination0.0266
Eccentricity0.0002979
Argument of Perigee75.6552
Mean Anonmoly120.8862
Mean Motion1.00272776
Decay Rate-1.02E-06
L11 42967U 17063A 19283.14441955 -.00000102 00000-0 00000+0 0 9994
L22 42967 0.0266 128.9785 0002979 75.6552 120.8862 1.00272776 7311

Live tracking and technical data element details for SES-11 (ECHOSTAR 105) (NORAD 42967). SES-11 (ECHOSTAR 105) can be tracked NOW for your location showing map with azimuth and elevation plus other details from your city location.

Track the satellite on the map from your city or location and see movement details for azimuth, elevation, latitude, longitude, range, height, and movement on the map or in text.







IsCatalogInMostPopularTable: catalog: 42967, numindb: 367
Update: records affected: 1



GetName: 42967 SES-11 (ECHOSTAR 105)

Hit Count: updated at: Mon, 14 Oct 2019 00:56:59 GMT